Location: Cabeza Renale
(40.7000°N, 4.2833°W)
Time: 11:57:27
(UTC+00:00)

Daily predictions for brighter satellites

Satellite Brightness Start Highest point End
(mag) Time Altitude Azimuth Time Altitude Azimuth Time Altitude Azimuth
Cosmos 2034 Rocket 4.2 19:59:33 10° N 20:05:42 57° E 20:11:51 10° SSE
Cosmos 2084 3.4 20:02:20 10° NNW 20:06:02 55° NE 20:09:46 10° SE
Cosmos 1371 Rocket 4.3 20:03:38 10° NNW 20:08:57 59° ENE 20:14:13 10° SSE
Cosmos-2242 4.3 20:05:38 10° SSW 20:09:39 44° WNW 20:13:44 10° N
MOS 1-B 4.4 20:07:36 10° SSE 20:13:23 85° ENE 20:19:11 10° NNW
Cosmos 1420 Rocket 4.1 20:08:39 10° NNW 20:14:00 78° ENE 20:19:17 10° SSE
Cosmos 1378 2.8 20:10:51 10° S 20:14:07 84° WNW 20:17:24 10° N
SeaSat 1 2.7 20:10:58 10° SSE 20:15:51 73° WSW 20:20:47 10° NNW
Cosmos 1933 4.1 20:12:02 10° SSW 20:15:53 55° W 20:19:47 10° N
Meteor 1-5 Rocket 4.3 20:10:17 10° N 20:16:09 77° E 20:21:47 10° SSE
PSLV R/B 3.6 20:14:33 10° SSE 20:18:16 75° ENE 20:21:57 10° N
Tsikada Rocket 4.1 20:15:29 10° S 20:21:30 58° E 20:27:37 10° NNE
Cosmos 1943 Rocket 3.9 20:17:58 10° NW 20:22:53 31° WSW 20:27:44 10° SSW
Cosmos 1943 3.6 20:18:33 10° S 20:23:52 43° ESE 20:29:12 10° NE
DELTA 2 DEB (DPAF) 4.3 20:22:48 10° N 20:27:02 73° WNW 20:31:14 10° SSW
USA 276 1.5 20:25:36 10° NW 20:27:43 56° NNE 20:29:24 15° ESE
Resurs 01 Rocket 2.0 20:24:27 10° S 20:28:50 67° W 20:33:15 10° NNW
ISS -2.2 20:27:43 10° NW 20:30:42 28° NNE 20:33:40 10° E
Okean O Rocket 2.1 20:34:42 10° S 20:39:04 62° W 20:43:28 10° NNW
CZ-4 R/B 3.8 20:36:50 10° SW 20:39:40 20° W 20:42:31 10° NW
USA 290 4.4 20:38:52 10° NW 20:41:28 23° WSW 20:44:03 10° SSW
Cosmos 2221 2.7 20:38:06 10° S 20:42:24 77° W 20:46:45 10° N
Cosmos 2292 Rocket 4.3 20:36:55 10° S 20:43:38 85° E 20:48:46 10° N
ATLAS 3B R/B 3.6 20:42:33 10° NW 20:50:06 52° WSW 20:57:26 10° S
MetOp-B 4.3 20:46:52 14° SSE 20:51:27 62° ENE 20:56:44 10° N
Ariane Rocket 4.1 20:48:21 15° ESE 20:51:33 28° ENE 20:55:51 10° N
Cosmos 1766 Rocket 3.6 20:48:50 10° N 20:53:19 87° ENE 20:57:20 13° S
Terra 2.5 20:59:36 20° SE 21:02:21 39° ENE 21:06:44 10° N
Cosmos 1340 Rocket 4.2 21:03:13 19° ESE 21:03:51 20° E 21:06:49 10° NE
Cosmos 2056 Rocket 4.5 20:59:27 10° NNW 21:04:32 44° WSW 21:09:31 10° S
USA 32 4.1 21:00:42 10° S 21:05:54 80° W 21:11:10 10° N
Cosmos 1452 Rocket 3.7 21:03:10 10° N 21:08:20 56° ENE 21:11:26 23° SE
Cosmos 468 4.4 21:04:00 10° S 21:09:11 73° ESE 21:14:23 10° NNE
Lacrosse 5 3.9 21:06:33 10° WNW 21:10:03 19° WSW 21:13:33 10° SSW
Cosmos 2297 4.4 21:05:05 10° NW 21:10:35 50° WSW 21:15:31 13° S
ERS-1 Rocket 3.0 21:12:27 23° SSE 21:15:33 65° ENE 21:20:33 10° N
CZ-4C R/B 4.4 21:12:41 10° N 21:16:24 46° WNW 21:20:14 10° SW
Cosmos 1743 3.7 21:15:52 10° NNW 21:19:17 41° W 21:21:59 15° SSW
Cosmos 1408 Rocket 3.9 21:15:05 10° N 21:19:26 50° E 21:21:17 30° SE
USA 245 2.3 21:22:29 52° NE 21:22:29 52° NE 21:24:29 10° N
Okean-O 3.8 21:19:31 11° SSW 21:23:26 39° W 21:27:34 10° NNW
Nadezhda 4 Rocket 4.4 21:21:16 24° SE 21:24:30 43° E 21:30:20 10° NNE
Cosmos 2279 Rocket 3.9 21:20:34 10° N 21:26:47 83° E 21:30:54 23° S
SPOT 5 3.2 21:26:54 19° S 21:30:05 54° W 21:34:25 10° NNW
Meteor 1-10 Rocket 4.2 21:25:30 12° S 21:30:56 87° W 21:36:36 10° N
Meteor 1-19 Rocket 4.4 21:28:37 24° SSE 21:32:09 59° E 21:37:48 10° NNE
Cosmos 1603 3.8 21:28:04 10° SSW 21:33:43 79° WNW 21:39:28 10° NNE
Okean 1 3.1 21:33:59 37° S 21:35:26 80° E 21:39:18 10° N
Cosmos 1151 Rocket 3.6 21:37:10 36° ESE 21:37:48 38° E 21:41:50 10° NNE
Cosmos 2369 Rocket 3.3 21:35:35 10° NW 21:40:39 36° WSW 21:44:28 16° SSW
Landsat 4 3.5 21:42:00 51° S 21:42:47 76° W 21:46:16 10° NNW
Meteor 1-11 Rocket 3.7 21:38:54 10° N 21:44:37 88° E 21:47:34 31° S
Meteor 2-17 Rocket 4.4 21:41:44 29° SSE 21:44:48 63° E 21:50:46 10° NNE
FALCON 9 R/B 3.6 21:40:00 10° W 21:45:29 51° S 21:58:42 17° ESE
Cosmos 1302 Rocket 4.3 21:45:58 10° N 21:51:04 54° ENE 21:52:42 38° ESE
Cosmos 1536 3.0 21:48:09 10° NNW 21:52:01 62° W 21:53:08 41° SSW
Cosmos 1331 Rocket 4.2 21:46:56 10° NNW 21:52:07 66° WSW 21:54:18 34° S
Cosmos 1726 3.1 21:50:31 10° NNW 21:53:20 31° W 21:53:59 28° WSW
USA 306 2.5 21:50:25 10° NW 21:54:17 78° NE 21:54:47 64° ESE
Cosmos 1500 Rocket 3.4 21:49:58 10° N 21:54:18 89° WNW 21:55:23 50° S
Lacrosse 4 Rocket 3.1 21:58:25 10° N 22:01:35 21° NE 22:02:26 20° ENE
Cosmos 1805 3.9 21:58:20 10° N 22:01:33 38° ENE 22:01:33 38° ENE
Cosmos 1733 2.8 21:59:45 10° N 22:03:12 86° NNE 22:03:12 86° NNE
Cosmos 2026 Rocket 4.4 22:02:10 37° SE 22:03:57 47° E 22:09:54 10° NNE
Cosmos 1805 Rocket 3.5 22:00:28 10° N 22:04:52 84° W 22:05:48 56° S
Spot 2 Rocket 4.0 22:05:13 32° SSW 22:07:16 54° W 22:12:14 10° NNW
ISS -2.6 22:04:19 10° WNW 22:06:48 35° WSW 22:06:48 35° WSW
NOSS 3-3 (A) 3.8 22:08:04 47° SSE 22:08:58 52° ESE 22:14:46 10° NE
Cosmos 1633 Rocket 4.2 22:07:31 10° NNE 22:11:26 30° ENE 22:11:28 30° ENE
USA 59 Rocket 0.9 22:07:45 10° NNW 22:11:46 46° NE 22:13:07 37° E
Cosmos 1666 Rocket 4.3 22:09:32 10° N 22:13:33 37° ENE 22:13:33 37° ENE
NOSS 2-1 (E) 4.3 22:09:49 10° NNW 22:13:51 48° NE 22:15:08 39° E
Landsat 5 3.4 22:10:10 10° N 22:13:56 68° WNW 22:14:26 59° WSW
Cosmos 1340 2.7 22:12:26 10° NNW 22:15:25 63° NW 22:15:25 63° NW
Chandra Rocket (1) 4.2 21:54:22 10° WSW 22:16:10 43° SSW 22:18:40 36° SSE
IRIDIUM 114 4.5 22:12:35 10° N 22:17:43 55° E 22:18:30 50° ESE
Cosmos 220 Rocket 3.8 22:18:08 75° S 22:18:29 85° ESE 22:22:49 10° NNE
SPOT 3 Rocket 4.1 22:16:44 34° SSW 22:18:36 49° W 22:23:35 10° NNW
Sich 1 3.5 22:16:33 10° NNW 22:20:49 54° W 22:21:38 46° SW
Cosmos 1818 3.4 22:21:17 49° S 22:22:41 73° ESE 22:28:09 10° NE
CZ-2C R/B 4.2 22:19:53 10° NNE 22:23:38 42° ENE 22:23:38 42° ENE
NOSS 2-1 (D) 3.9 22:22:22 10° NNW 22:26:29 66° NE 22:27:17 56° ESE
IRIDIUM 103 4.3 22:21:40 10° N 22:26:53 68° E 22:27:38 60° SE
Ariane Rocket 4.2 22:28:29 26° SW 22:30:20 34° W 22:34:56 10° NNW
MetOp-A 3.8 22:31:23 58° SW 22:31:59 65° W 22:36:49 10° NNW
USA 281 3.2 22:30:22 45° S 22:32:36 77° WSW 22:39:13 10° NNW
Cosmos 1697 Rocket 4.3 22:29:02 10° N 22:33:29 23° NE 22:35:28 19° E
Meteor 2-4 Rocket 3.7 22:33:19 50° S 22:35:00 90° E 22:40:59 10° N
GEOS 3 Rocket 4.3 22:34:29 10° NNE 22:39:30 53° NW 22:44:26 10° SW
NOSS 3-3 (C) 3.6 22:38:07 51° SSW 22:39:35 84° ESE 22:45:43 10° NE
Terra 3.7 22:38:18 17° WSW 22:40:03 21° W 22:43:36 10° NW
Cosmos 1066 Rocket 4.3 22:41:55 55° ESE 22:42:33 58° E 22:48:18 10° NNE
IRIDIUM 106 4.2 22:39:57 10° N 22:45:12 82° W 22:45:53 67° SSW
ARIANE 5 R/B 2.8 22:50:12 61° NE 22:50:12 61° NE 22:54:08 10° N
Cosmos 1092 Rocket 4.1 22:53:11 45° SSW 22:55:11 70° W 23:01:30 10° N
Cosmos 1269 Rocket 4.0 22:54:33 66° SW 22:55:16 80° WNW 23:00:33 10° NNE
Cosmos 1626 3.7 22:57:25 29° NNW 22:57:25 29° NNW 22:59:13 10° N
Meteor 1-18 Rocket 4.5 22:59:07 49° SW 23:00:39 68° W 23:06:35 10° N
CZ-3 Stage 3 4.0 22:32:21 10° WSW 23:00:58 45° S 23:03:03 42° SSE
NOSS 2-1 (C) 4.0 22:58:48 10° NW 23:02:46 61° WSW 23:02:46 61° WSW
PSLV R/B 4.5 23:04:19 10° N 23:07:35 55° N 23:07:35 55° N
Cosmos 2266 Rocket 4.4 23:12:28 44° E 23:12:50 44° E 23:18:41 10° NNE
Spot 4 4.2 23:13:59 54° ENE 23:13:59 54° ENE 23:18:23 10° N
Cosmos 1833 Rocket 2.5 23:17:04 79° SSW 23:17:25 89° WNW 23:23:04 10° NNE
Cosmos 2082 Rocket 3.5 23:23:06 26° E 23:23:06 26° E 23:26:49 10° NE
Cosmos 2360 4.1 23:19:00 10° NNW 23:24:46 82° ENE 23:25:03 78° ESE
Cosmos 1515 Rocket 4.1 23:28:43 54° NNW 23:28:43 54° NNW 23:32:14 10° N
H-2A R/B 3.4 23:38:15 44° NW 23:38:15 44° NW 23:41:23 10° NNW
Cosmos 1656 4.3 23:34:38 10° NW 23:39:30 42° W 23:39:30 42° W
H-2A R/B 3.7 23:35:48 10° NNE 23:38:23 27° ENE 23:38:23 27° ENE
Lacrosse 4 Rocket 3.1 23:36:10 10° NW 23:38:21 26° WNW 23:38:21 26° WNW
Cosmos 1869 Rocket 4.5 23:39:11 10° N 23:42:30 44° NE 23:42:30 44° NE
Cosmos 1470 4.4 23:41:54 10° N 23:43:59 31° NNW 23:43:59 31° NNW
Cosmos 1417 Rocket 4.3 23:41:38 10° N 23:47:58 89° W 23:48:30 77° S
